| time (UTC) | temp F | wind direction | speed knots | gust knots | rain 1hr in | rain 24hr in | rain mn in | humidity % | barometer mb |
| 20260504020603 | 44 | 0.0 | 0.0 | 0.00 | 0.00 | 0.00 | 10 | 1027.5 | |
| 20260504015516 | 44 | 0.0 | 0.0 | 0.00 | 0.00 | 0.00 | 99 | 1027.2 | |
| 20260504014516 | 44 | 0.0 | 0.0 | 0.00 | 0.00 | 0.00 | 10 | 1027.4 | |
| 20260504013516 | 44 | 0.0 | 0.0 | 0.00 | 0.00 | 0.00 | 10 | 1027.2 | |
| 20260504012531 | 44 | 0.0 | 0.0 | 0.00 | 0.00 | 0.00 | 10 | 1028.0 | |
| 20260504011516 | 45 | 0.0 | 0.0 | 0.00 | 0.00 | 0.00 | 10 | 1026.6 | |
| 20260504010516 | 44 | 0.0 | 0.0 | 0.00 | 0.00 | 0.00 | 10 | 1027.6 | |
| 20260504005546 | 45 | 0.0 | 0.0 | 0.00 | 0.00 | 0.00 | 10 | 1026.8 | |
| 20260504004516 | 45 | 0.0 | 0.0 | 0.00 | 0.00 | 0.00 | 10 | 1026.3 | |
| 20260504003516 | 45 | 0.0 | 0.0 | 0.00 | 0.00 | 0.00 | 10 | 1026.4 | |
| 20260504002516 | 45 | 0.0 | 0.0 | 0.00 | 0.00 | 0.00 | 10 | 1027.2 | |
| 20260504001516 | 45 | 0.0 | 0.0 | 0.00 | 0.00 | 0.00 | 98 | 1027.0 | |
| 20260504000532 | 46 | 0.0 | 0.0 | 0.00 | 0.00 | 0.00 | 10 | 1026.9 | |
| 20260503235516 | 46 | 0.0 | 0.0 | 0.00 | 0.00 | 0.00 | 98 | 1026.8 | |
| 20260503234516 | 46 | 0.0 | 0.0 | 0.00 | 0.00 | 0.00 | 98 | 1026.5 | |
| 20260503233516 | 46 | 0.0 | 0.0 | 0.00 | 0.00 | 0.00 | 99 | 1026.4 | |
| 20260503232516 | 46 | 0.0 | 0.0 | 0.00 | 0.00 | 0.00 | 98 | 1027.0 | |
| 20260503231516 | 46 | 0.0 | 0.0 | 0.00 | 0.00 | 0.00 | 99 | 1027.3 | |
| 20260503230516 | 46 | 0.0 | 0.0 | 0.00 | 0.00 | 0.00 | 98 | 1027.4 | |
| 20260503225516 | 47 | 0.0 | 0.0 | 0.00 | 0.00 | 0.00 | 99 | 1026.9 | |
| 20260503224531 | 47 | 0.0 | 0.0 | 0.00 | 0.00 | 0.00 | 10 | 1027.3 | |
| 20260503223516 | 47 | 0.0 | 0.0 | 0.00 | 0.00 | 0.00 | 99 | 1026.9 | |
| 20260503222531 | 47 | 0.0 | 0.0 | 0.00 | 0.00 | 0.00 | 98 | 1026.8 | |
| 20260503221556 | 47 | 0.0 | 0.0 | 0.00 | 0.00 | 0.00 | 10 | 1026.7 | |
| 20260503220516 | 47 | 0.0 | 0.0 | 0.00 | 0.00 | 0.00 | 10 | 1027.0 | |
| 20260503215534 | 47 | 0.0 | 0.0 | 0.00 | 0.00 | 0.00 | 10 | 1027.3 | |
| 20260503214517 | 47 | 0.0 | 0.0 | 0.00 | 0.00 | 0.00 | 10 | 1027.1 | |
| 20260503213516 | 47 | 0.0 | 0.0 | 0.00 | 0.00 | 0.00 | 10 | 1026.4 | |
| 20260503212531 | 47 | 0.0 | 0.0 | 0.00 | 0.00 | 0.00 | 99 | 1027.7 | |
| 20260503211516 | 48 | 0.0 | 0.0 | 0.00 | 0.00 | 0.00 | 99 | 1027.1 | |
| 20260503210518 | 48 | 0.0 | 0.0 | 0.00 | 0.00 | 0.00 | 10 | 1048.5 | |
| 20260503204238 | 220 | 0.0 | 0.0 | 0.00 | 0.00 | 0.00 | 10 | 1826.5 | |
| 20260503203238 | -95 | 0.0 | 0.0 | 0.00 | 0.00 | 0.00 | 98 | 1199.8 | |
| 20260503202238 | 220 | 0.0 | 0.0 | 0.00 | 0.00 | 0.00 | 10 | 1815.3 | |
| 20260503201253 | -64 | 0.0 | 0.0 | 0.00 | 0.00 | 0.00 | 10 | 1561.4 | |
| 20260503200238 | 358 | 0.0 | 0.0 | 0.00 | 0.00 | 0.00 | 10 | ||
| 20260503195248 | 361 | 0.0 | 0.0 | 0.00 | 0.00 | 0.00 | 10 | 1811.5 | |
| 20260503194238 | -16 | 0.0 | 0.0 | 0.00 | 0.00 | 0.00 | 90 | 1729.7 | |
| 20260503193238 | -20 | 0.0 | 0.0 | 0.00 | 0.00 | 0.00 | 85 | 1731.1 | |
| 20260503192248 | 343 | 0.0 | 0.0 | 0.00 | 0.00 | 0.00 | 10 | 1095.2 | |
| 20260503191240 | 343 | 0.0 | 0.0 | 0.00 | 0.00 | 0.00 | 10 | 1116.1 | |
| 20260503190253 | 220 | 0.0 | 0.0 | 0.00 | 0.00 | 0.00 | 10 | 1826.5 | |
| 20260503185237 | -64 | 0.0 | 0.0 | 0.00 | 0.00 | 0.00 | 10 | 1561.4 | |
| 20260503184238 | 358 | 0.0 | 0.0 | 0.00 | 0.00 | 0.00 | 10 | ||
| 20260503183238 | -95 | 0.0 | 0.0 | 0.00 | 0.00 | 0.00 | 98 | 1199.8 | |
| 20260503182253 | -16 | 0.0 | 0.0 | 0.00 | 0.00 | 0.00 | 90 | 1718.4 | |
| 20260503181238 | -16 | 0.0 | 0.0 | 0.00 | 0.00 | 0.00 | 90 | 1746.3 | |
| 20260503180238 | -64 | 0.0 | 0.0 | 0.00 | 0.00 | 0.00 | 10 | 1561.4 | |
| 20260503175238 | 220 | 0.0 | 0.0 | 0.00 | 0.00 | 0.00 | 10 | 1826.5 | |
| 20260503174238 | -12 | 0.0 | 0.0 | 0.00 | 0.00 | 0.00 | 94 | 1811.8 | |
| 20260503173238 | 220 | 0.0 | 0.0 | 0.00 | 0.00 | 0.00 | 10 | 1861.8 | |
| 20260503172239 | 220 | 0.0 | 0.0 | 0.00 | 0.00 | 0.00 | 10 | 1826.5 | |
| 20260503171253 | -16 | 0.0 | 0.0 | 0.00 | 0.00 | 0.00 | 90 | 1744.1 | |
| 20260503170237 | 287 | 0.0 | 0.0 | 0.00 | 0.00 | 0.00 | 10 | 1431.7 | |
| 20260503150238 | 220 | 0.0 | 0.0 | 0.00 | 0.00 | 0.00 | 10 | 1861.8 | |
| 20260503140237 | -20 | 0.0 | 0.0 | 0.00 | 0.00 | 0.00 | 85 | 1146.6 | |
| 20260503131255 | -16 | 0.0 | 0.0 | 0.00 | 0.00 | 0.00 | 90 | 1720.1 | |
| 20260503130238 | 220 | 0.0 | 0.0 | 0.00 | 0.00 | 0.00 | 10 | 1820.4 | |
| 20260503110237 | 248 | 0.0 | 0.0 | 0.00 | 0.00 | 0.00 | 10 | 1842.6 | |
| 20260503100237 | -16 | 0.0 | 0.0 | 0.00 | 0.00 | 0.00 | 90 | 1720.1 | |
| 20260503090237 | 88 | 0.0 | 0.0 | 0.00 | 0.00 | 0.00 | 10 | 1417.1 | |
| 20260503081237 | 57 | 0.0 | 0.0 | 0.00 | 0.00 | 0.00 | 72 | 1026.8 | |
| 20260503080238 | 58 | 0.0 | 0.0 | 0.00 | 0.00 | 0.00 | 74 | 1023.6 | |
| 20260503072237 | 53 | 0.0 | 0.0 | 0.00 | 0.00 | 0.00 | 98 | 1025.7 | |
| 20260503071237 | 53 | 0.0 | 0.0 | 0.00 | 0.00 | 0.00 | 95 | 1025.2 | |
| 20260503070237 | 52 | 0.0 | 0.0 | 0.00 | 0.00 | 0.00 | 92 | 1025.3 | |
| 20260503060237 | 52 | 0.0 | 0.0 | 0.00 | 0.00 | 0.00 | 88 | 1025.2 | |
| 20260503054237 | 51 | 0.0 | 0.0 | 0.00 | 0.00 | 0.00 | 98 | 1024.5 | |
| 20260503053236 | 50 | 0.0 | 0.0 | 0.00 | 0.00 | 0.00 | 99 | 1025.0 | |
| 20260503052252 | 50 | 0.0 | 0.0 | 0.00 | 0.00 | 0.00 | 10 | 1025.2 | |
| 20260503051237 | 50 | 0.0 | 0.0 | 0.00 | 0.00 | 0.00 | 10 | 1024.8 | |
| 20260503050236 | 50 | 0.0 | 0.0 | 0.00 | 0.00 | 0.00 | 10 | 1024.7 | |
| 20260503045237 | 49 | 0.0 | 0.0 | 0.00 | 0.00 | 0.00 | 10 | 1024.5 | |
| 20260503044237 | 48 | 0.0 | 0.0 | 0.00 | 0.00 | 0.00 | 10 | 1024.8 | |
| 20260503043237 | 48 | 0.0 | 0.0 | 0.00 | 0.00 | 0.00 | 10 | 1024.2 | |
| 20260503042252 | 46 | 0.0 | 0.0 | 0.00 | 0.00 | 0.00 | 10 | 1027.5 | |
| 20260503041236 | 48 | 0.0 | 0.0 | 0.00 | 0.00 | 0.00 | 10 | 1025.4 | |
| 20260503040236 | 49 | 0.0 | 0.0 | 0.00 | 0.00 | 0.00 | 10 | 1024.4 | |
| 20260503035237 | 48 | 0.0 | 0.0 | 0.00 | 0.00 | 0.00 | 10 | 1024.8 | |
| 20260503034237 | 48 | 0.0 | 0.0 | 0.00 | 0.00 | 0.00 | 10 | 1024.6 | |
| 20260503033237 | 48 | 0.0 | 0.0 | 0.00 | 0.00 | 0.00 | 10 | 1025.1 | |
| 20260503032252 | 48 | 0.0 | 0.0 | 0.00 | 0.00 | 0.00 | 10 | 1024.7 | |
| 20260503031236 | 48 | 0.0 | 0.0 | 0.00 | 0.00 | 0.00 | 10 | 1024.7 | |
| 20260503030236 | 48 | 0.0 | 0.0 | 0.00 | 0.00 | 0.00 | 10 | 1023.9 | |
| 20260503025236 | 47 | 0.0 | 0.0 | 0.00 | 0.00 | 0.00 | 10 | 1024.0 | |
| 20260503024236 | 47 | 0.0 | 0.0 | 0.00 | 0.00 | 0.00 | 10 | 1026.4 | |
| 20260503023236 | 48 | 0.0 | 0.0 | 0.00 | 0.00 | 0.00 | 10 | 1024.1 | |
| 20260503022308 | 48 | 0.0 | 0.0 | 0.00 | 0.00 | 0.00 | 10 | 1024.4 | |
| 20260503021237 | 48 | 0.0 | 0.0 | 0.00 | 0.00 | 0.00 | 10 | 1024.2 |